Home   Weather   Gbarnga   Past weeks

Flag for Liberia Past Weather in Gbarnga, Liberia — Yesterday and Last 2 Weeks

90 °F

Partly sunny.

Feels Like: 103 °F
Forecast: N/A
Wind: 9 mph from Southwest

Location: Roberts Field

Current Time: Oct 25, 2016 at 3:44:20 PM

Latest Report: Oct 25, 2016 at 1:30 PM

Visibility: N/A

Pressure: 29.80 "Hg

Humidity: 67%

Dew Point: 77 °F

Location of GbarngaLocation

Past Weather in Gbarnga — Graph


Gbarnga Temperature Yesterday

Maximum temperature yesterday: 88 °F (at 11:00 AM)
Minimum temperature yesterday: 75 °F (at 7:00 AM)
Average temperature yesterday: 81 °F

High & Low Weather Summary for the Past Weeks

High90 °F (Oct 16, 1:30 PM)100% (Oct 14, 7:00 PM)29.95 "Hg (Oct 14, 7:00 PM)
Low73 °F (Oct 12, 6:30 AM)63% (Oct 23, 3:30 PM)29.80 "Hg (Oct 16, 2:30 PM)
Average80 °F88%29.88 "Hg
* Reported Oct 10 1:00 PM — Oct 25 1:30 PM, Gbarnga, Weather by CustomWeather, © 2016

Note: Actual official high and low records may vary slightly from our data, if they occured in-between our weather recording intervals... More about our weather records


Gbarnga Weather History for the Previous 24 Hours

Scroll right to see more
Time TempWeatherWind HumidityBarometerVisibility
1:30 PM
Tue, Oct 25
90 °FPartly sunny.9 mph67%29.80 "HgN/A
1:00 PM88 °FPartly sunny.9 mph70%29.83 "HgN/A
12:30 PM88 °FPartly sunny.12 mph70%29.83 "HgN/A
12:00 PM90 °FPartly sunny.No wind67%29.83 "HgN/A
11:30 AM88 °FPartly sunny.No wind66%29.86 "HgN/A
11:00 AM86 °FPartly sunny.No wind75%29.89 "HgN/A
10:30 AM86 °FPartly sunny.6 mph79%29.89 "HgN/A
10:00 AM84 °FPartly sunny.No wind79%29.89 "HgN/A
9:00 AM81 °FScattered clouds.No wind84%29.89 "HgN/A
8:00 AM77 °FPartly sunny.No wind89%29.86 "HgN/A
7:30 AM75 °FPassing clouds.No wind94%29.86 "HgN/A
7:00 AM75 °FPassing clouds.No wind89%29.83 "HgN/A
6:30 AM75 °FPassing clouds.No wind94%29.83 "HgN/A
6:00 AM75 °FPassing clouds.No wind94%29.83 "HgN/A
5:30 AM75 °FPassing clouds.No wind94%29.83 "HgN/A
5:00 AM75 °FPassing clouds.No wind94%29.83 "HgN/A
4:30 AM75 °FPassing clouds.No wind94%29.83 "HgN/A
4:00 AM75 °FPassing clouds.No wind94%29.83 "HgN/A
3:00 AM75 °FPassing clouds.No wind94%29.83 "HgN/A
2:30 AM75 °FPassing clouds.No wind94%29.83 "HgN/A
1:30 AM75 °FPassing clouds.No wind94%29.86 "HgN/A
1:00 AM75 °FPassing clouds.No wind94%29.86 "HgN/A
12:30 AM75 °FPassing clouds.No wind94%29.86 "HgN/A
12:00 AM75 °FPassing clouds.No wind94%29.89 "HgN/A
11:30 PM
Mon, Oct 24
75 °FPassing clouds.No wind94%29.89 "HgN/A
11:00 PM77 °FPassing clouds.No wind94%29.89 "HgN/A
10:30 PM77 °FPassing clouds.No wind94%29.89 "HgN/A
10:00 PM77 °FPassing clouds.No wind94%29.86 "HgN/A
9:00 PM77 °FPassing clouds.No wind94%29.86 "HgN/A
8:30 PM77 °FPassing clouds.7 mph94%29.86 "HgN/A
8:00 PM77 °FThunderstorms. Passing clouds.No wind94%29.83 "HgN/A
7:30 PM79 °FThunderstorms. Passing clouds.No wind94%29.80 "HgN/A
7:00 PM79 °FThunderstorms. Partly sunny.No wind94%29.80 "HgN/A
6:30 PM82 °FThunderstorms. Partly sunny.6 mph84%29.80 "Hg5 mi
6:00 PM82 °FThunderstorms. Scattered clouds.No wind84%29.80 "HgN/A
5:30 PM84 °FThunderstorms. Scattered clouds.3 mph79%29.80 "HgN/A
4:00 PM86 °FPartly sunny.10 mph75%29.80 "HgN/A
3:00 PM88 °FPartly sunny.6 mph66%29.80 "HgN/A
Weather by CustomWeather, © 2016

See weather overviewHow to use our weather pages